sat.trackr.live / text

‹ back to catalog

STARLINK-35972

NORAD 66638 · 2025-271X

PAYLOAD ACTIVE UNKNOWN

§ Identity

Operator
Country
US
Launch date
2025-11-23
Launch site
AFWTR
Launch vehicle
Mass (kg)
RCS (m²)

Purposes: comms

External: N2YO · Heavens-Above · Gunter

§ Orbital elements

Epoch: 2026-05-24T17:16:46.347168Z

Period
94.11 min
Inclination
53.1601°
Eccentricity
0.0001526
Mean motion
15.30200392 rev/d
Perigee alt
474.2 km
Apogee alt
476.3 km
Semi-major
6,853.4 km
B*
3.1867e-4
RAAN
147.0325°
Arg perigee
83.3153°
Mean anomaly
276.8021°
Rev number
2,920

§ Raw data

STARLINK-359721 66638U 25271X   26144.71998087  .00009091  00000+0  31867-3 0  99982 66638  53.1601 147.0325 0001526  83.3153 276.8021 15.30200392 29200

JSON: /api/v1/satellites/66638 · /tle

For live sub-satellite position, see the globe view (requires WebGL).

§ Visibility from observer

Set your observer location to see the next 7 days of passes ≥ 10°. The values pass through the URL so the page stays shareable.

No JS? Fill the form by hand. The geolocation button needs JavaScript.